EUTELSAT 36B

Last updated on Oct. 1, 2020, 5:42 a.m. UTC

1 36101U 09065A   20274.95465956  .00000142  00000-0  00000+0 0  9991
2 36101   0.0696 358.5496 0004677 191.0667 200.1438  1.00276548 39900
UTC
Height (km)
Latitude
Longitude
Inclination
Orbital Period
UTC large
Height (km)
Speed (km/s)
/
Latitude / Longitude
Inclination (degrees)
Orbital Period (minutes)
Azimuth
Elevation
Range (km)
Doppler Factor
iOS Compass Heading
iOS Angle

Next 30 passes for location: Hong Kong

Rise time Rise Azimuth (degrees) Set time Set Azimuth (degrees) Duration Max altitude (degrees)

No matching passes for this satellites